Probability
0 0 0 0 0 0 0 0 0 0 0 0 0 0 0 0 0 0 0 0 0 0 0 0 0 0 0 0 0 0 0 0 0 0 0 0 0 0 0 0 0 0 0 0
0 0 0 0 0 0 0 0 0 0 0 0 0 0 0 0 0 0 0 0 0 0 0 0 0 0 0 0 0 0 0 0 0 0 0 0 0 0 0 0 0 0 0 0
0 0 0 0 0 0 0 0 0 0 0 0 0 0 0 0 0 0 0 0 0 0 0 0 0 0 0 0 0 0 0 0 0 0 0 0 0 0 0 0 0 0 0 0
0 0 0 0 0 0 0 0 0 0 0 0 0 0 0 0 0 0 0 0 0 0 0 0 0 0 0 0 0 0 0 0 0 0 0 0 0 0 0 0 0 0 0 0
0 0 0 0 0 0 0 0 0 0 0 0 0 0 0 0 0 0 0 0 0 0 0 0 0 0 0 0 0 0 0 0 0 0 0 0 0 0 0 0 0 0 0 0
0 0 0 0 0 0 0 0 0 0 0 0 0 0 0 0 0 0 0 0 0 0 0 0 0 0 0 0 0 0 0 0 0 0 0 0 0 0 0 0 0 0 0 0
0 0 0 0 0 0 0 0 0 0 0 0 0 0 0 0 0 0 0 0 0 0 0 0 0 0 0 0 0 0 0 0 0 0 0 0 0 0 0 0 0 0 0 0
0 0 0 0 0 0 0 0 0 0 0 0 0 0 0 0 0 0 0 0 0 0 0 0 0 0 0 0 0 0 0 0 0 0 0 0 0 0 0 0 0 0 0 0
0 0 0 0 0 0 0 0 0 0 0 0 0 0 0 0 0 0 0 0 0 0 0 0 0 0 0 0 0 0 0 0 0 0 0 0 0 0 0 0 0 0 0 0
0 0 0 0 0 0 0 0 0 0 0 0 0 0 0 0 0 0 0 0 0 0 0 0 0 0 0 0 0 0 0 0 0 0 0 0 0 0 0 0 0 0 0 0
0 0 0 0 0 0 0 0 0 0 0 0 0 0 0 0 0 0 0 0 0 0 0 0 0 0 0 0 0 0 0 0 0 0 0 0 0 0 0 0 0 0 0 0
0 0 0 0 0 0 0 0 0 0 0 0 0 0 0 0 0 0 0 0 0 0 0 0 0 0 0 0 0 0 0 0 0 0 0 0 0 0 0 0 0 0 0 0
0 0 0 0 0 0 0 0 0 0 0 0 0 0 0 0 0 0 0 0 0 0 0 0 0 0 0 0 0 0 0 0 0 0 0 0 0 0 0 0 0 0 0 0
0 0 0 0 0 0 0 0 0 0 0 0 0 0 0 0 0 0 0 0 0 0 0 0 0 0 0 0 0 0 0 0 0 0 0 0 0 0 0 0 0 0 0 0
0 0 0 0 0 0 0 0 0 0 0 0 0 0 0 0 0 0 0 0 0 0 0 0 0 0 0 0 0 0 0 0 0 0 0 0 0 0 0 0 0 0 0 0
0 0 0 0 0 0 0 0 0 0 0 0 0 0 0 0 0 0 0 0 0 0 0 0 0 0 0 0 0 0 0 0 0 0 0 0 0 0 0 0 0 0 0 0
0 0 0 0 0 0 0 0 0 0 0 0 0 0 0 0 0 0 0 0 0 0 0 0 0 0 0 0 0 0 0 0 0 0 0 0 0 0 0 0 0 0 0 0
0 0 0 0 0 0 0 0 0 0 0 0 0 0 0 0 0 0 0 0 0 0 0 0 0 0 0 0 0 0 0 0 0 0 0 0 0 0 0 0 0 0 0 0
0 0 0 0 0 0 0 0 0 0 0 0 0 0 0 0 0 0 0 0 0 0 0 0 0 0 0 0 0 0 0 0 0 0 0 0 0 0 0 0 0 0 0 0
0 0 0 0 0 0 0 0 0 0 0 0 0 0 0 0 0 0 0 0 0 0 0 0 0 0 0 0 0 0 0 0 0 0 0 0 0 0 0 0 0 0 0 0
0 0 0 0 0 0 0 0 0 0 0 0 0 0 0 0 0 0 0 0 0 0 0 0 0 0 0 0 0 0 0 0 0 0 0 0 0 0 0 0 0 0 0 0
0 0 0 0 0 0 0 0 0 0 0 0 0 0 0 0 0 0 0 0 0 0 0 0 0 0 0 0 0 0 0 0 0 0 0 0 0 0 0 0 0 0 0 0
0 0 0 0 0 0 0 0 0 0 0 0 0 0 0 0 0 0 0 0 0 0 0 0 0 0 0 0 0 0 0 0 0 0 0 0 0 0 0 0 0 0 0 0
0 0 0 0 0 0 0 0 0 0 0 0 0 0 0 0 0 0 0 0 0 0 0 0 0 0 0 0 0 0 0 0 0 0 0 0 0 0 0 0 0 0 0 0
0 0 0 0 0 0 0 0 0 0 0 0 0 0 0 0 0 0 0 0 0 0 0 0 0 0 0 0 0 0 0 0 0 0 0 0 0 0 0 0 0 0 0 0
0 0 0 0 0 0 0 0 0 0 0 0 0 0 0 0 0 0 0 0 0 0 0 0 0 0 0 0 0 0 0 0 0 0 0 0 0 0 0 0 0 0 0 0
0 0 0 0 0 0 0 0 0 0 0 0 0 0 0 0 0 0 0 0 0 0 0 0 0 0 0 0 0 0 0 0 0 0 0 0 0 0 0 0 0 0 0 0
Wind_Speed
5 5 4 5 6 4 5 6 6 7 7 9 6 5 3 3 3 3 4 5 4 4 4 5 4 3 3 2 1 0 1 1 1 1 1 1 1 1 0 0 0 0 1 1
4 4 4 6 7 6 7 6 6 6 9 6 3 2 2 2 3 3 4 5 4 4 4 4 4 4 3 2 2 0 1 1 0 0 1 1 1 1 0 0 1 1 1 1
4 4 3 7 7 7 5 5 6 8 8 3 3 3 4 3 3 3 4 4 4 4 4 4 4 3 3 3 1 0 0 0 0 0 0 1 1 1 1 1 0 1 1 1
1 2 5 7 2 4 5 6 5 5 4 4 5 4 4 2 2 3 3 4 4 4 4 4 4 3 2 2 1 0 0 0 0 0 0 0 0 0 1 1 1 1 1 1
1 3 8 7 3 3 4 6 4 5 4 3 2 3 4 2 1 3 3 3 3 3 4 4 3 3 2 2 1 1 1 1 1 0 0 0 0 1 1 1 1 1 1 1
2 3 7 6 3 1 2 6 4 4 4 2 1 3 6 3 2 2 2 2 3 3 3 3 4 2 1 1 1 1 2 2 1 1 1 1 1 1 1 1 1 1 1 0
4 5 10 6 1 3 2 7 4 3 4 4 5 6 4 2 2 2 2 2 2 2 2 3 3 2 1 1 2 2 2 1 1 0 1 1 0 0 0 0 1 1 1 1
5 5 10 3 4 6 7 3 2 3 3 4 4 3 2 2 2 1 2 2 2 2 3 3 3 1 1 2 3 2 1 1 1 0 0 0 1 0 0 0 1 1 1 1
9 9 5 4 5 4 2 3 3 3 3 3 3 3 3 3 2 2 2 2 2 2 3 3 3 2 2 3 2 1 1 1 1 1 1 1 1 0 0 1 0 1 0 1
6 8 6 5 4 3 3 4 4 3 3 3 3 4 3 3 2 2 2 2 2 1 2 3 3 2 2 2 1 1 1 1 1 1 1 1 1 0 0 0 0 1 1 1
7 7 5 5 6 5 4 3 2 2 3 3 3 4 3 3 3 3 2 2 1 1 2 3 3 3 3 2 1 1 0 1 1 1 1 1 1 1 1 1 2 1 1 1
8 7 6 6 5 4 4 4 4 2 2 2 3 3 3 3 2 2 2 1 1 1 2 2 2 2 3 2 1 0 0 0 0 0 0 0 0 2 3 2 3 3 2 2
6 4 4 5 4 4 4 4 3 3 3 3 3 3 3 2 2 1 1 1 2 2 2 2 2 2 3 2 1 0 1 1 0 0 0 0 0 1 1 3 3 3 3 3
5 3 3 4 4 3 3 3 2 2 2 2 2 2 2 2 2 2 2 2 2 2 2 2 2 3 3 2 1 1 1 1 1 1 1 1 1 1 1 1 1 2 3 4
6 5 5 3 2 2 1 1 1 2 2 2 1 2 2 2 3 3 2 1 1 1 2 2 2 3 2 1 1 1 1 1 1 1 1 1 1 1 0 0 1 1 1 2
4 3 3 3 3 2 2 2 3 3 3 2 2 3 3 3 2 2 2 1 1 2 3 2 3 3 2 1 1 1 1 3 2 1 1 1 1 1 1 1 1 1 1 1
5 5 4 4 4 4 4 4 4 4 3 3 3 3 2 1 1 2 2 1 2 3 3 3 3 2 1 1 1 1 1 2 2 1 1 1 1 1 1 1 1 1 1 2
7 6 6 6 5 5 4 3 3 3 3 3 2 2 2 2 3 3 2 2 2 2 3 2 2 2 1 1 1 1 1 1 1 1 1 1 1 1 1 1 1 2 1 2
5 4 4 4 4 4 4 4 3 3 2 2 2 3 3 3 3 2 2 2 2 3 3 2 3 2 1 2 2 1 1 1 1 1 1 2 1 1 1 1 2 2 2 1
3 3 3 3 3 3 3 3 2 2 2 2 2 2 2 3 2 2 2 3 4 3 3 2 2 2 2 2 2 1 2 2 2 2 1 1 1 2 2 2 2 2 2 2
3 3 3 3 2 2 3 3 3 3 2 2 3 3 3 3 2 2 2 3 4 3 2 3 2 2 2 2 3 1 2 2 2 2 2 2 2 2 2 2 2 2 2 2
4 4 3 3 3 2 2 2 2 2 2 2 2 2 2 2 2 2 3 4 3 3 2 2 2 3 3 3 1 1 2 2 2 2 2 2 2 2 2 2 2 2 2 2
4 4 4 4 3 2 1 2 2 2 3 3 3 3 3 3 3 3 3 3 2 4 2 2 3 5 4 1 1 2 2 2 2 2 2 2 2 2 2 3 3 2 2 2
3 3 3 3 3 2 2 2 2 2 2 3 3 3 3 2 3 3 3 3 4 4 2 4 5 5 3 1 1 2 2 2 2 2 2 2 2 2 2 3 3 3 3 3
3 3 3 3 3 3 3 2 2 2 2 2 3 3 3 3 3 2 2 3 4 3 2 3 4 4 2 1 2 2 2 3 3 2 3 2 2 3 3 3 3 3 3 3
3 3 3 4 3 3 2 2 2 2 2 2 2 2 2 1 2 1 1 2 3 3 2 2 2 2 1 2 2 2 2 3 3 3 3 3 3 3 3 3 4 3 3 3
2 2 2 2 2 3 3 3 3 3 2 3 2 2 2 1 1 1 2 2 2 2 2 2 1 2 2 2 2 2 2 2 3 3 3 3 3 3 3 4 3 3 3 3
Wind_Direction
259 266 249 253 259 238 218 216 216 243 246 259 258 255 266 292 318 335 343 339 332 332 331 333 330 325 324 326 322 345 129 145 177 178 163 142 142 171 156 143 355 315 310 306
288 272 257 273 268 245 239 235 240 255 264 261 274 262 276 299 311 316 323 324 325 329 327 324 324 324 325 321 317 344 155 180 186 132 141 154 173 158 134 324 320 310 295 289
272 301 324 276 241 218 226 223 210 233 248 258 277 264 256 257 268 283 305 315 317 316 315 311 313 321 315 303 318 355 243 198 156 151 187 205 175 145 190 241 268 282 286 276
261 11 248 250 240 209 223 245 236 245 250 235 248 267 269 234 231 278 298 303 309 312 314 310 308 317 322 330 12 7 305 348 286 182 202 229 130 219 255 248 249 260 278 255
172 243 275 287 259 197 208 267 243 235 256 282 322 327 290 247 250 264 274 289 298 301 303 312 317 319 335 351 13 15 332 304 287 234 202 194 215 248 256 247 261 265 278 236
172 217 249 258 259 220 109 279 253 225 242 261 14 291 272 263 291 289 291 304 310 315 323 327 322 330 359 333 350 325 301 289 268 217 192 206 226 237 264 259 266 287 303 265
206 237 262 254 217 108 175 259 274 226 220 215 224 240 261 272 282 274 299 307 321 325 321 314 316 341 0 340 304 302 315 318 307 242 220 209 196 261 319 333 355 336 330 336
178 219 255 210 143 190 228 270 274 250 231 231 253 271 264 255 263 285 312 317 328 328 322 323 326 348 348 314 305 327 355 19 359 325 297 88 96 20 17 54 37 353 359 355
198 220 250 205 213 231 226 254 261 248 253 230 248 262 268 263 258 262 274 290 304 308 316 327 335 342 316 308 325 2 45 35 360 13 25 55 95 63 29 62 56 327 341 335
251 259 258 256 254 255 244 245 258 252 242 225 240 249 257 259 261 266 278 279 296 306 307 317 327 329 313 321 1 64 57 17 19 44 23 18 27 28 64 165 248 282 297 302
252 267 283 258 236 239 248 255 261 271 248 229 222 240 242 246 251 254 271 277 268 262 279 299 320 328 330 338 25 63 41 26 21 22 30 14 359 335 286 237 236 245 242 245
229 226 218 247 236 224 233 242 241 247 264 251 219 226 232 236 244 248 260 268 274 273 284 300 317 322 329 341 1 56 348 348 341 334 355 8 346 339 337 325 319 314 309 300
226 228 226 252 243 216 222 238 238 231 231 248 243 224 219 233 241 247 263 257 246 259 274 292 308 314 323 340 345 336 278 289 291 297 300 303 301 297 319 342 352 354 348 336
218 190 233 237 234 225 222 229 228 239 240 228 233 225 210 225 243 246 253 253 252 264 278 289 298 301 311 327 336 323 302 286 287 266 253 258 268 272 274 303 329 341 350 350
224 213 218 227 213 211 196 182 207 244 241 247 233 222 212 216 235 250 261 266 275 278 281 286 287 294 313 315 319 314 307 296 282 267 258 254 260 267 282 286 301 319 338 342
222 219 207 198 207 213 201 205 221 237 234 236 241 237 229 226 240 257 265 226 213 257 267 271 276 285 304 313 317 308 292 288 290 270 260 263 251 244 252 262 284 301 310 322
187 210 207 213 218 223 222 222 222 228 231 231 236 235 230 233 256 268 272 261 245 253 257 259 268 285 294 291 281 279 283 282 285 290 261 249 243 241 238 239 258 275 282 294
209 210 201 199 204 217 228 228 225 226 230 234 231 217 216 223 240 256 266 281 293 293 282 267 267 280 275 274 267 265 272 273 269 260 253 244 241 231 231 235 254 267 281 296
205 199 200 202 202 202 211 219 224 229 229 215 212 225 233 239 245 255 258 254 259 275 280 270 272 276 259 252 255 243 250 262 268 269 256 263 274 246 236 241 254 263 267 278
189 187 187 191 187 190 205 214 214 225 225 208 209 228 250 256 249 249 247 249 247 249 257 261 262 254 248 251 251 234 236 247 256 261 259 250 247 247 244 250 257 264 269 272
186 187 185 186 195 202 201 197 198 219 230 210 210 227 245 257 246 235 241 265 269 253 255 257 254 246 243 248 249 234 231 241 251 251 249 249 251 253 253 255 260 265 266 271
184 185 190 188 188 212 215 199 199 209 219 227 230 231 240 256 257 255 246 247 262 261 260 251 253 254 258 261 239 228 234 238 244 245 243 244 246 250 255 259 261 264 265 267
188 186 189 193 194 200 214 211 206 204 216 228 232 233 237 243 235 237 264 260 255 262 265 253 262 265 269 262 231 231 240 244 245 246 249 248 248 248 251 255 258 263 263 266
190 190 190 180 160 173 216 232 219 219 227 239 240 235 233 247 259 247 250 268 265 265 261 266 270 269 274 267 242 245 246 245 245 244 246 249 249 250 251 253 256 258 260 265
186 184 178 173 186 208 217 215 213 228 234 250 256 250 238 229 240 258 262 263 268 275 275 269 269 273 273 259 247 247 245 244 246 246 241 245 249 251 252 253 254 257 258 261
187 189 197 202 205 205 199 194 210 223 227 250 264 259 257 255 247 256 269 271 269 278 278 271 269 271 266 256 254 254 252 262 267 259 250 250 250 251 253 251 249 249 251 255
184 188 188 209 219 206 197 198 209 221 221 227 249 255 249 253 257 265 272 280 281 280 277 275 273 269 266 262 261 259 256 256 256 254 251 249 248 246 247 249 250 249 249 251